Wind_Speed
34 33 32 31 30 30 30 30 29 26 25 24 25 25 24 23 23 22 22 22 22 22 22 22 22 21 21 21 21 22 23 23 25 26 27 27 29 30 32 34 35 37 38 39
35 34 34 33 31 30 30 30 30 28 26 25 26 26 25 24 24 24 24 24 24 23 23 23 22 22 22 23 24 24 24 25 25 25 26 27 29 29 31 32 34 36 38 40
38 36 36 35 31 30 31 31 31 30 28 27 27 27 26 26 25 26 26 26 26 25 25 24 24 24 24 24 25 25 25 26 26 26 27 28 30 30 31 32 33 34 36 39
39 38 39 34 32 31 31 30 30 30 29 28 28 28 28 27 27 27 28 27 26 26 26 26 25 25 25 25 25 26 26 27 27 27 27 28 29 31 32 34 34 36 37 38
38 39 38 34 32 31 31 30 30 31 30 30 30 30 29 29 29 29 29 29 28 28 28 29 28 27 26 26 26 27 28 28 29 29 29 30 30 32 34 35 36 36 37 38
39 39 39 34 32 32 33 32 31 32 32 32 31 32 30 31 31 31 31 31 31 30 30 30 30 29 28 28 28 28 29 30 31 31 32 32 33 34 35 36 37 38 38 38
39 39 39 35 34 34 34 34 33 33 34 33 33 33 33 32 33 32 32 32 32 32 31 31 31 31 31 31 30 30 30 31 31 32 33 34 35 36 36 37 38 38 39 40
39 41 38 36 36 35 35 35 35 35 34 34 34 35 34 34 33 33 33 33 33 33 33 32 32 32 32 33 32 32 32 33 33 34 35 35 36 36 37 37 38 38 39 40
39 39 38 37 37 37 37 37 37 37 36 35 35 36 35 35 35 34 34 34 33 33 33 33 34 33 33 34 33 33 34 34 35 35 36 37 37 38 39 39 39 39 39 40
39 38 38 37 37 38 38 38 37 37 36 36 37 37 36 36 36 35 35 34 34 34 34 34 34 35 35 35 35 34 35 36 37 37 38 38 39 39 40 40 41 41 41 41
40 38 37 38 37 37 37 37 38 38 37 37 37 38 38 37 37 37 36 36 35 35 35 35 36 36 36 36 36 36 36 37 38 38 39 39 40 40 40 40 41 41 41 41
40 39 39 37 37 37 38 37 38 38 38 38 38 38 38 38 38 37 37 36 36 37 37 37 37 37 38 38 38 38 39 39 39 39 40 40 41 41 41 41 41 41 41 41
40 41 41 40 39 39 39 38 38 39 39 38 38 39 39 39 38 38 38 37 37 38 38 38 38 39 39 40 40 41 41 41 41 41 41 41 41 41 41 41 41 41 41 41
40 41 41 40 40 40 40 39 39 39 39 39 39 39 39 39 39 39 39 39 39 39 39 40 40 40 41 41 42 42 42 42 42 43 43 43 43 43 43 42 42 41 41 41
38 39 39 40 40 39 39 39 39 39 39 40 40 40 40 40 40 40 40 40 40 41 41 41 41 41 42 42 43 43 43 43 43 44 44 44 44 44 43 43 42 41 41 41
36 37 37 38 38 38 39 39 40 40 40 40 41 41 41 40 41 41 40 41 41 42 42 42 42 42 43 43 43 43 43 43 43 43 43 43 43 43 43 42 42 41 41 41
35 36 36 36 36 37 38 38 39 39 39 40 40 40 40 40 40 41 41 41 42 42 42 42 42 42 42 42 42 42 42 42 42 42 42 42 42 41 41 41 41 40 39 39
34 35 35 35 36 36 37 37 37 37 37 37 38 38 39 39 40 41 41 42 42 42 41 41 42 41 41 41 41 41 40 40 40 41 41 40 40 40 40 39 39 38 37 37
33 34 34 34 34 34 35 36 35 35 36 36 36 37 38 38 39 40 40 41 40 40 40 41 41 42 42 42 42 41 41 41 40 40 40 39 38 38 38 37 37 36 36 35
31 32 33 33 33 33 33 33 33 33 34 34 35 36 36 37 38 38 38 39 39 40 40 41 42 42 42 42 41 41 40 40 40 39 39 38 38 37 37 36 36 35 35 34
30 31 31 31 31 32 32 32 32 32 33 34 34 35 36 36 37 37 37 37 38 39 39 39 40 40 41 41 40 40 39 39 38 38 38 37 37 36 36 35 35 34 34 33
29 29 30 30 30 31 31 32 32 32 33 34 34 35 35 35 35 35 35 36 36 37 37 38 38 39 39 39 38 37 37 37 37 37 37 37 36 36 35 35 34 33 32 32
27 28 29 30 30 31 31 32 32 33 33 34 34 34 33 33 33 33 33 34 35 35 36 36 37 37 37 36 35 35 35 35 35 35 35 34 33 32 32 31 31 30 30 29
26 26 27 28 28 29 29 29 30 31 32 32 32 32 32 31 31 32 32 33 33 34 35 35 35 35 34 34 33 33 33 33 33 32 31 30 29 28 28 28 28 27 27 27
26 26 26 26 27 27 27 27 28 29 29 30 30 31 31 30 30 31 31 32 32 33 33 33 33 33 32 32 31 31 31 31 30 29 28 27 27 26 26 26 26 25 24 24
25 25 25 25 25 25 26 26 27 27 28 28 28 29 29 29 30 30 30 30 31 31 31 31 31 30 30 30 29 29 28 28 27 27 26 26 25 25 25 25 24 23 22 21
24 24 24 24 25 25 26 26 26 27 27 27 28 28 28 29 29 29 29 29 29 28 28 28 28 28 28 27 26 26 26 26 25 25 25 24 24 24 23 22 21 20 20 19
Wind_Direction
269 269 269 271 273 275 277 279 281 285 286 288 288 288 289 290 292 294 295 297 299 299 297 296 296 292 288 285 283 283 282 277 275 273 269 269 269 269 268 268 267 267 268 269
265 267 267 268 270 272 273 275 278 280 282 282 284 283 284 286 288 290 292 294 296 296 297 296 296 293 290 287 285 283 282 279 277 276 274 273 273 273 273 272 273 272 270 270
265 265 266 267 270 270 270 272 274 276 278 278 279 282 282 283 285 287 290 292 292 293 293 294 294 294 293 290 286 284 284 281 278 278 277 276 275 275 277 277 277 275 274 272
266 265 265 268 269 269 270 270 271 273 274 276 277 279 280 282 284 286 287 289 289 290 291 291 291 291 291 290 287 286 286 285 282 280 279 279 278 278 278 278 278 277 276 277
265 266 265 265 267 269 269 269 270 271 272 274 275 277 279 280 281 282 283 285 286 287 288 288 288 289 289 288 287 287 286 286 286 285 284 283 282 281 281 280 279 279 278 279
263 266 266 267 268 268 268 268 269 270 271 272 273 276 278 280 281 282 283 284 285 285 285 285 285 285 286 287 287 287 287 287 287 286 285 283 283 283 283 282 280 279 279 280
261 264 266 268 269 269 268 269 269 270 272 273 274 276 278 280 281 282 282 282 282 283 283 284 284 283 284 286 286 286 287 288 288 288 288 287 285 283 282 282 281 281 281 281
260 261 264 267 267 266 267 268 268 270 271 273 273 276 277 278 279 280 280 280 280 280 281 281 281 282 283 285 286 285 286 286 287 287 288 288 287 285 284 283 282 283 283 283
259 260 262 263 264 265 266 268 269 269 270 272 273 275 276 277 278 278 279 279 279 279 278 279 280 281 282 283 284 284 285 285 286 287 288 288 287 286 285 284 283 284 285 285
258 259 260 261 262 264 266 268 269 269 270 272 272 273 275 277 277 278 279 279 279 278 278 278 279 281 281 282 283 284 285 286 287 288 289 289 289 287 286 285 284 284 284 285
259 259 260 259 261 263 265 266 267 268 270 272 272 272 273 275 276 277 277 278 278 278 279 278 279 279 280 281 282 283 285 287 287 288 289 289 289 289 288 287 285 285 285 286
260 259 259 258 260 261 263 265 266 268 268 269 271 272 273 274 276 276 277 278 278 278 278 279 279 279 280 281 282 283 285 287 288 289 289 289 289 289 288 288 287 286 286 286
260 259 259 258 259 261 263 265 266 267 268 268 269 271 272 274 275 276 276 277 277 278 279 279 280 280 281 282 283 284 285 287 288 289 289 289 288 288 287 286 287 287 287 286
260 260 260 260 260 261 263 265 266 267 267 268 269 270 272 273 274 275 275 276 277 278 279 279 280 281 282 282 284 285 286 286 287 288 288 288 288 287 287 286 286 286 286 286
260 261 261 261 262 262 263 265 266 267 267 268 268 269 271 272 273 274 275 276 277 278 279 280 280 281 282 283 284 285 285 286 286 287 288 288 288 287 287 287 286 286 286 285
261 261 262 263 263 263 263 264 266 267 268 269 269 269 270 272 273 274 275 276 278 278 279 280 280 281 282 283 284 284 285 285 286 287 287 288 288 288 288 287 287 286 286 286
262 262 262 263 264 264 264 264 266 268 270 271 271 270 271 273 273 274 274 275 277 278 279 279 280 281 283 284 285 285 286 286 287 288 289 289 289 288 288 288 288 287 287 287
262 262 263 264 265 265 265 266 268 269 271 272 272 272 273 273 274 274 275 275 276 278 278 279 280 282 283 285 286 287 287 288 288 288 289 290 289 289 289 289 288 287 287 286
263 262 263 265 267 268 268 269 270 271 271 272 273 274 274 274 275 276 276 276 277 277 278 280 281 282 284 285 286 286 287 287 288 289 290 290 290 289 289 288 287 286 285 285
263 264 265 266 268 268 269 270 271 271 272 272 274 275 275 275 275 276 276 277 278 279 280 281 282 282 284 285 286 286 287 288 288 289 289 289 289 289 288 288 287 286 285 285
267 268 268 268 268 269 270 271 272 272 272 273 274 275 275 276 276 276 277 278 279 280 282 283 283 284 284 286 286 287 287 287 287 287 288 288 288 288 288 287 286 286 286 285
270 270 270 270 270 270 271 272 272 272 273 274 276 277 276 276 276 277 278 279 280 281 282 283 284 285 286 287 287 287 286 286 286 286 287 287 287 286 286 286 286 286 286 286
274 273 272 272 272 271 272 272 272 272 274 275 277 277 277 277 278 278 279 280 281 282 283 285 286 287 288 288 287 287 286 286 286 286 287 287 287 286 286 286 286 286 286 286
279 277 275 275 274 272 272 271 271 273 274 276 277 279 280 280 279 280 281 282 282 284 285 287 287 288 288 287 287 287 287 287 287 287 286 287 287 287 287 288 288 288 288 287
278 277 276 275 274 273 272 273 273 274 275 277 278 280 280 280 280 282 284 285 286 287 288 288 289 289 288 287 287 288 288 286 285 284 285 286 286 287 288 289 290 289 288 287
277 277 276 274 273 273 273 274 275 276 278 279 280 280 280 281 283 284 285 287 289 290 290 290 290 290 290 289 289 289 287 286 285 284 284 284 285 286 288 290 289 287 287 285
278 277 277 276 275 274 274 275 276 277 279 279 281 281 282 283 285 285 286 288 289 291 292 292 293 292 291 290 289 288 286 285 285 284 283 284 285 286 287 288 287 286 285 284
Height
5669 5670 5669 5670 5671 5670 5669 5668 5667 5668 5667 5666 5664 5662 5661 5659 5657 5655 5653 5651 5649 5646 5644 5642 5640 5638 5637 5635 5634 5633 5632 5631 5629 5629 5629 5628 5628 5628 5628 5628 5628 5628 5627 5627
5659 5659 5659 5660 5661 5661 5661 5660 5659 5659 5659 5659 5657 5655 5654 5653 5651 5649 5647 5645 5643 5641 5639 5637 5635 5633 5631 5629 5628 5627 5625 5624 5623 5622 5621 5621 5620 5620 5619 5619 5618 5617 5616 5616
5647 5649 5648 5649 5653 5653 5652 5652 5652 5651 5652 5650 5649 5648 5647 5645 5644 5642 5641 5639 5637 5635 5633 5631 5629 5627 5625 5623 5622 5620 5619 5617 5616 5615 5614 5613 5612 5611 5611 5609 5608 5607 5606 5605
5636 5638 5637 5644 5643 5643 5642 5643 5642 5642 5642 5641 5641 5640 5639 5638 5637 5635 5633 5632 5630 5628 5626 5624 5622 5620 5618 5616 5615 5613 5612 5610 5609 5607 5606 5604 5603 5602 5601 5600 5598 5597 5595 5594
5625 5625 5627 5632 5633 5633 5632 5633 5633 5633 5633 5633 5632 5631 5631 5629 5628 5627 5625 5624 5622 5620 5619 5617 5615 5613 5611 5609 5608 5606 5605 5603 5601 5599 5597 5596 5594 5593 5591 5590 5588 5586 5585 5583
5614 5615 5616 5623 5623 5622 5623 5623 5624 5623 5623 5623 5623 5623 5623 5621 5619 5618 5617 5615 5614 5612 5610 5609 5607 5605 5604 5602 5600 5599 5597 5595 5593 5591 5589 5587 5585 5583 5581 5579 5578 5576 5574 5572
5603 5603 5606 5611 5611 5611 5613 5614 5613 5613 5613 5613 5613 5614 5613 5612 5610 5609 5608 5606 5605 5603 5602 5600 5599 5597 5596 5594 5592 5590 5588 5586 5584 5582 5580 5578 5576 5573 5571 5569 5567 5566 5564 5561
5592 5593 5599 5600 5600 5601 5601 5601 5602 5602 5602 5603 5603 5603 5602 5602 5601 5600 5598 5597 5595 5594 5592 5591 5589 5588 5587 5585 5583 5581 5579 5577 5575 5573 5570 5568 5566 5563 5561 5558 5557 5554 5552 5550
5582 5585 5587 5588 5588 5589 5589 5590 5591 5591 5592 5592 5592 5592 5592 5591 5590 5589 5588 5587 5585 5584 5583 5581 5580 5578 5577 5575 5574 5572 5570 5568 5565 5563 5560 5558 5555 5553 5550 5547 5545 5543 5541 5538
5570 5573 5575 5576 5577 5578 5578 5579 5580 5580 5581 5581 5581 5581 5581 5580 5579 5579 5578 5576 5575 5574 5572 5571 5570 5569 5567 5565 5564 5562 5560 5558 5555 5553 5550 5547 5544 5541 5538 5536 5533 5531 5529 5526
5558 5562 5563 5564 5565 5566 5567 5568 5568 5569 5570 5570 5570 5570 5570 5569 5568 5568 5567 5566 5564 5563 5562 5561 5560 5558 5556 5555 5553 5551 5549 5547 5544 5541 5539 5536 5533 5530 5527 5524 5521 5519 5516 5514
5548 5551 5551 5553 5554 5555 5555 5556 5557 5558 5559 5559 5558 5558 5558 5558 5557 5556 5555 5554 5553 5552 5551 5550 5548 5547 5545 5543 5542 5540 5538 5535 5533 5530 5527 5524 5521 5519 5515 5512 5509 5506 5503 5501
5536 5537 5538 5540 5542 5543 5544 5544 5545 5546 5546 5547 5547 5546 5546 5546 5546 5545 5544 5543 5542 5541 5539 5538 5536 5535 5533 5532 5530 5528 5526 5523 5521 5518 5515 5512 5509 5506 5504 5501 5497 5493 5490 5488
5524 5525 5526 5528 5530 5531 5532 5533 5533 5534 5534 5535 5535 5535 5534 5534 5534 5533 5532 5531 5530 5529 5527 5526 5524 5523 5521 5519 5517 5515 5513 5511 5508 5505 5502 5500 5496 5493 5490 5488 5486 5482 5479 5475
5513 5514 5515 5516 5518 5519 5520 5521 5521 5522 5522 5522 5522 5522 5522 5522 5521 5520 5519 5518 5518 5516 5515 5514 5512 5511 5509 5507 5505 5503 5501 5498 5495 5492 5489 5486 5483 5480 5477 5475 5472 5469 5466 5463
5502 5503 5504 5505 5506 5507 5508 5509 5509 5510 5510 5510 5510 5509 5509 5509 5508 5508 5507 5506 5505 5504 5503 5501 5500 5498 5496 5494 5492 5489 5487 5485 5482 5479 5476 5473 5470 5467 5464 5462 5459 5456 5454 5451
5491 5492 5493 5494 5495 5495 5496 5497 5497 5498 5498 5497 5497 5497 5497 5496 5496 5495 5495 5493 5492 5491 5489 5488 5486 5484 5482 5480 5478 5476 5474 5472 5469 5466 5463 5460 5457 5454 5451 5449 5446 5443 5441 5438
5480 5481 5482 5483 5484 5484 5485 5485 5486 5486 5486 5485 5485 5485 5484 5484 5483 5482 5482 5481 5480 5478 5477 5475 5473 5471 5470 5468 5466 5464 5461 5459 5456 5454 5451 5448 5445 5442 5439 5436 5434 5431 5429 5426
5469 5471 5472 5472 5473 5474 5474 5474 5474 5474 5474 5474 5473 5473 5472 5471 5470 5470 5469 5468 5467 5465 5464 5462 5460 5459 5457 5455 5453 5451 5449 5446 5444 5441 5438 5436 5433 5430 5427 5425 5422 5420 5417 5415
5460 5460 5461 5462 5463 5463 5463 5463 5463 5463 5463 5462 5462 5461 5460 5459 5458 5457 5456 5455 5454 5453 5451 5450 5448 5446 5444 5442 5440 5438 5436 5434 5431 5429 5426 5424 5421 5419 5416 5414 5411 5409 5406 5404
5450 5450 5451 5452 5452 5452 5453 5453 5453 5453 5452 5451 5451 5450 5449 5448 5447 5446 5445 5444 5442 5441 5439 5437 5436 5434 5432 5430 5428 5425 5423 5421 5419 5417 5414 5412 5410 5407 5405 5402 5400 5398 5395 5393
5441 5441 5441 5442 5442 5442 5442 5442 5442 5442 5441 5441 5440 5439 5438 5437 5436 5435 5434 5432 5431 5429 5428 5426 5424 5421 5419 5417 5415 5413 5411 5409 5407 5405 5403 5400 5398 5396 5394 5391 5389 5387 5385 5383
5432 5432 5432 5432 5432 5432 5432 5432 5431 5431 5431 5430 5429 5428 5427 5426 5425 5424 5423 5422 5420 5418 5416 5414 5412 5410 5408 5406 5403 5401 5399 5397 5395 5393 5391 5389 5387 5385 5383 5381 5378 5376 5374 5372
5423 5423 5422 5422 5422 5422 5422 5422 5421 5421 5421 5420 5419 5418 5417 5416 5415 5413 5412 5411 5409 5407 5405 5403 5401 5399 5397 5395 5392 5390 5388 5387 5385 5383 5381 5379 5377 5375 5373 5371 5369 5367 5365 5363
5414 5414 5413 5413 5413 5413 5413 5412 5412 5412 5411 5411 5410 5408 5407 5406 5405 5404 5402 5400 5398 5396 5394 5392 5390 5388 5386 5384 5382 5380 5378 5376 5375 5373 5371 5369 5368 5366 5364 5362 5361 5359 5357 5355
5406 5406 5406 5405 5405 5405 5404 5404 5403 5403 5402 5402 5400 5399 5398 5397 5395 5394 5392 5390 5388 5386 5384 5382 5380 5378 5376 5374 5373 5371 5369 5367 5365 5364 5362 5361 5359 5358 5356 5354 5352 5351 5349 5348
5399 5398 5398 5397 5397 5396 5396 5395 5395 5394 5393 5392 5391 5390 5389 5387 5386 5384 5383 5381 5379 5377 5375 5373 5371 5369 5367 5365 5363 5362 5360 5358 5356 5355 5353 5352 5351 5349 5348 5347 5345 5344 5343 5342